Location: Stiffkey
(52.9333°N, 0.9500°E)
Time: 00:00:23
(UTC+00:00)

Daily predictions for brighter satellites

Satellite Brightness Start Highest point End
(mag) Time Altitude Azimuth Time Altitude Azimuth Time Altitude Azimuth
OPS 8737 4.3 00:00:20 10° NW 00:03:24 69° NE 00:06:00 13° SE
Cosmos 1328 4.0 00:02:26 24° SSE 00:04:20 50° E 00:07:51 10° NNE
Cosmos 2082 Rocket 4.4 00:01:49 10° NNW 00:06:32 26° NE 00:11:15 10° E
PSLV R/B 3.9 00:08:33 10° N 00:12:46 60° WNW 00:15:55 18° SSW
Cosmos 2278 Rocket 4.4 00:12:48 10° ESE 00:15:12 13° E 00:17:35 10° ENE
USA 229 DEB 4.3 00:10:36 10° NW 00:17:49 70° NE 00:25:48 10° ESE
Cosmos 1300 Rocket 3.8 00:13:28 10° NNW 00:17:49 59° W 00:20:33 22° S
USA 229 4.3 00:10:43 10° NW 00:17:55 70° NE 00:25:53 10° ESE
SJ 16-02 1.5 00:15:31 22° S 00:18:09 61° ESE 00:22:26 10° NNE
PSLV R/B 3.9 00:15:10 10° NNE 00:19:05 75° WNW 00:21:35 21° SSW
CZ-2C R/B 3.2 00:14:32 11° SE 00:19:24 56° ENE 00:24:38 10° N
Cosmos 1943 Rocket 4.3 00:19:35 10° ESE 00:21:43 12° E 00:23:53 10° ENE
NOSS 2-1 (C) 3.8 00:19:02 10° WNW 00:22:20 39° SW 00:24:43 21° S
Cosmos 371 Rocket 4.2 00:19:30 18° SSE 00:22:29 36° ESE 00:26:55 10° NE
USA 307 2.8 00:20:42 19° SW 00:23:10 50° SSE 00:27:03 10° ENE
NOSS 2-1 (E) 3.8 00:22:40 10° WNW 00:26:02 41° SW 00:28:37 20° S
Cosmos 676 Rocket 4.0 00:24:48 18° SSW 00:28:45 87° WNW 00:34:02 10° NNE
Aureole 3 4.5 00:25:37 19° SSW 00:29:57 85° W 00:36:39 10° N
Cosmos 1782 Rocket 4.4 00:34:07 10° NNW 00:38:14 39° W 00:40:56 19° SSW
Cosmos 1844 Rocket 3.4 00:36:43 10° SW 00:42:14 51° NW 00:47:48 10° NNE
Cosmos 1378 Rocket 4.3 00:40:25 17° SSE 00:43:34 45° E 00:47:46 10° NNE
USA 234 3.5 00:39:20 10° ENE 00:45:42 52° SE 00:51:09 14° SW
Cosmos 1844 4.3 00:41:50 10° SW 00:47:14 52° NW 00:52:42 10° NNE
Cosmos 1340 Rocket 3.3 00:44:58 10° N 00:48:45 54° ENE 00:52:07 13° SSE
EO 1 Delta rocket 4.4 00:43:14 14° SSE 00:49:04 87° ENE 00:54:23 10° N
USA 59 Rocket 1.2 00:49:43 10° WNW 00:52:43 23° SW 00:54:17 19° SSW
Cosmos 1606 3.1 00:51:32 10° NNW 00:54:22 34° W 00:55:43 22° SW
ATLAS 3B R/B 3.0 00:53:08 10° NW 01:01:03 75° SW 01:08:39 10° SSE
Cosmos 304 Rocket 3.8 01:00:52 18° SSW 01:04:20 76° ESE 01:09:07 10° NNE
SOZ 4.3 01:06:57 23° SW 01:08:01 50° SSE 01:10:31 10° E
H-2A R/B 2.4 01:06:39 20° S 01:08:57 50° WSW 01:12:31 10° NNW
Cosmos 2279 Rocket 4.3 01:04:14 10° NNW 01:10:13 52° W 01:15:04 16° SSW
Cosmos 2242 Rocket 3.9 01:09:13 17° SSW 01:12:29 57° WNW 01:16:53 10° N
Landsat 4 3.7 01:11:50 23° SSW 01:13:13 38° W 01:15:59 10° NNW
H-2A R/B 3.8 01:10:12 10° NE 01:13:20 22° E 01:16:28 10° SE
Cosmos 1869 3.0 01:11:59 10° NNW 01:15:44 81° W 01:18:36 16° S
Cosmos 1814 Rocket 4.1 01:10:43 10° NNW 01:16:02 69° WSW 01:21:15 10° SSE
USA 305 1.2 01:13:40 10° WNW 01:16:28 78° NNE 01:18:17 10° E
Cosmos 1850 Rocket 4.0 01:12:44 16° SSW 01:16:51 86° WNW 01:22:03 10° NNE
IDEFIX/ARIANE 42P 3.4 01:12:22 10° NNE 01:17:22 43° E 01:22:10 11° S
SL-24 R/B - RUBIN 2 3.9 01:12:48 10° NW 01:17:41 53° SW 01:22:05 10° SSE
SeaSat 1 4.2 01:17:10 13° SW 01:19:23 16° WSW 01:22:28 10° WNW
ATLAS 2AS CENTAUR R/B 2.8 01:12:28 10° SW 01:19:32 85° NW 01:26:29 10° NE
Cosmos 1455 Rocket 4.2 01:15:37 10° N 01:19:46 41° ENE 01:23:52 10° SE
Cosmos 1833 Rocket 3.0 01:15:36 10° NW 01:20:58 47° WSW 01:25:45 13° S
Cosmos 2221 Rocket 3.8 01:21:46 14° S 01:25:25 65° E 01:29:49 10° NNE
Spot 2 4.4 01:22:26 14° S 01:26:26 60° WSW 01:30:57 10° NNW
Cosmos 1812 3.5 01:23:58 10° N 01:26:58 38° ENE 01:29:58 10° SE
MSX 4.4 01:23:20 10° NNE 01:28:56 51° E 01:34:26 10° S
NPP 4.3 01:27:34 10° NNE 01:32:49 49° E 01:38:03 10° S
CZ-2C R/B 3.3 01:28:33 10° N 01:34:04 69° WNW 01:38:34 14° SSW
Sich 1 Rocket 3.7 01:31:12 10° NNW 01:35:37 66° W 01:39:38 13° S
SL-4 R/B 1.8 01:36:36 10° W 01:40:37 73° S 01:44:26 10° E
Cosmos 1674 Rocket 3.6 01:38:17 15° SSW 01:41:47 67° WNW 01:46:08 10° N
COSMOS 2406 4.0 01:36:07 10° NNW 01:41:48 55° NE 01:47:25 10° SE
Cosmos 332 Rocket 4.2 01:37:42 13° S 01:41:53 58° ESE 01:46:38 10° NNE
Cosmos 968 Rocket 4.0 01:37:59 12° SW 01:42:40 55° WNW 01:47:51 10° NNE
Resurs 1-4 Rocket 3.3 01:43:32 10° NNE 01:48:25 37° E 01:53:16 10° SSE
Cosmos 2082 Rocket 2.3 01:45:40 10° NNW 01:51:24 88° NE 01:57:08 10° SSE
USA 307 2.7 01:49:18 10° W 01:53:15 80° N 01:57:08 10° E
SJ 16-02 3.2 01:53:17 10° WSW 01:56:43 22° NW 02:00:09 10° N
Cosmos 2278 Rocket 2.4 01:52:55 12° SSW 01:58:10 66° ESE 02:03:48 10° NE
Cosmos 2098 Rocket 3.5 01:55:08 10° N 01:59:03 49° ENE 02:02:20 10° SSE
Timation 2 Rocket 3.9 01:53:46 12° SW 01:59:23 84° WNW 02:05:26 10° NNE
CZ-2C R/B 3.7 01:56:00 12° SSW 01:59:58 28° W 02:04:31 10° NNW
Okean 2 Rocket 4.0 01:57:15 10° NNW 02:01:19 34° W 02:05:04 12° SSW
Cosmos 371 Rocket 4.2 01:58:09 10° SW 02:02:43 40° NW 02:07:18 10° NNE
CZ-2D R/B 3.1 01:57:36 10° NNE 02:02:48 45° E 02:07:54 10° S
Cosmos 1943 Rocket 2.4 01:59:08 11° SSW 02:04:21 66° ESE 02:09:51 10° NE
ALOS 3.8 02:01:06 10° NNE 02:05:08 30° E 02:09:09 10° SSE
SL-16 R/B 3.8 02:01:14 10° SE 02:07:02 44° ENE 02:12:55 10° N
USA 229 DEB 4.3 02:01:43 10° NW 02:08:40 44° WSW 02:16:13 10° S
USA 229 4.3 02:01:49 10° NW 02:08:47 45° WSW 02:16:20 10° S
Okean 1 Rocket 3.9 02:07:13 10° NNW 02:11:17 35° W 02:15:20 10° SSW
Cosmos 1025 Rocket 3.5 02:13:48 11° SSW 02:17:47 47° WNW 02:21:56 10° N
Cosmos 1553 Rocket 4.0 02:15:30 10° N 02:21:37 88° E 02:27:43 10° S
USA 81 4.5 02:21:28 10° SSW 02:26:34 49° WNW 02:31:42 10° N
Cosmos 1570 Rocket 4.2 02:23:46 10° NNW 02:28:59 54° WSW 02:34:09 10° S
USA 234 3.4 02:22:28 10° ENE 02:29:01 80° NNW 02:35:34 10° WSW
Geosat FO 4.1 02:27:24 10° SSE 02:30:24 74° WSW 02:33:30 10° NW
Cosmos 2084 3.4 02:27:44 10° NW 02:31:45 82° NE 02:35:41 10° SE
Cosmos 1092 Rocket 4.2 02:26:44 10° SSW 02:32:58 66° WNW 02:39:18 10° N
ADEOS II 2.7 02:28:21 10° NNE 02:33:32 56° ESE 02:38:39 10° S
Cosmos 1975 Rocket 3.1 02:30:07 10° S 02:34:35 89° WNW 02:39:03 10° N
Cosmos 2369 Rocket 4.2 02:31:10 10° SSE 02:35:26 22° ESE 02:39:40 10° NE
Cosmos 292 Rocket 3.9 02:30:47 10° SSW 02:35:34 77° ESE 02:40:25 10° NNE
Cosmos 2208 Rocket 4.1 02:31:48 10° NNW 02:36:54 61° WSW 02:41:58 10° S
Cosmos 773 Rocket 4.0 02:35:36 10° NNW 02:40:46 69° WSW 02:45:58 10° SSE
